"Pseudo-MPEC" for P12oEGv

Created 2026 Aug 6 3:35:07 UT using Find_Orb

Click here for an explanation of pseudo-MPECs

 
 Astrometry: 
     P12oEGv*0C2026 07 25.56987423 04 49.546-07 09 43.96   ~7PKo 22.12wXNEOCPF51
     P12oEGv 0C2026 07 25.59112623 04 49.777-07 08 46.17   ~7PKo 21.51wXNEOCPF51
     P12oEGv 0C2026 07 25.60192423 04 49.883-07 08 16.68   ~7PKo 22.09wXNEOCPF51
     P12oEGv 0C2026 07 26.49567323 05 06.272-06 27 06.09   ~7QGZ 21.16GVNEOCPF52
     P12oEGv 0C2026 07 26.50514623 05 06.299-06 26 39.00   ~7QGZ 21.09GVNEOCPF52
     P12oEGv 0C2026 07 26.50595423 05 06.308-06 26 36.57   ~7QGZ 21.53GVNEOCPF52
     P12oEGv 0C2026 07 26.51484523 05 06.382-06 26 11.58   ~7QGZ 21.61GVNEOCPF52
     P12oEGv 0C2026 07 26.51565223 05 06.372-06 26 10.10   ~7QGZ 21.79GVNEOCPF52
     P12oEGv 0C2026 07 26.52452023 05 06.467-06 25 45.11   ~7QGZ 21.80GVNEOCPF52
     P12oEGv 0C2026 07 26.52532723 05 06.462-06 25 42.87   ~7QGZ 21.18GVNEOCPF52
     P12oEGv KC2026 08 04.92172723 05 21.410+02 14 52.80   ~85EK 21.31GXNEOCPM57
     P12oEGv KC2026 08 05.00411723 05 19.586+02 20 14.50   ~85EK 20.48GXNEOCPM57
     P12oEGv KC2026 08 05.08534723 05 17.669+02 25 31.73   ~85EK 20.66GXNEOCPM57

Station data:
(F51) Pan-STARRS 1, Haleakala  (N20.707234 W156.255910)  US/Hawaii.
   Observers J. Herman, T. Lowe, P. Minguez, A. Schultz, I. Smith. Measurers
   K. Chambers, T. de Boer, J. Fairlamb, H. Gao, M. Huber, C.-C. Lin, E.
   Magnier, Y. Ramanjooloo, R. Wainscoat, R. Weryk. 1.8-m Ritchey-Chrétien +
   CCD.
(F52) Pan-STARRS 2, Haleakala  (N20.707382 W156.255910)  US/Hawaii.
   Observers J. Herman, T. Lowe, P. Minguez, A. Schultz, I. Smith. Measurers
   K. Chambers, T. de Boer, J. Fairlamb, H. Gao, M. Huber, C.-C. Lin, E.
   Magnier, Y. Ramanjooloo, R. Wainscoat, R. Weryk. 1.8-m Ritchey-Chrétien +
   CCD.
(M57) Wide-field Mufara Telescope, Isnello  (N37.868879 E14.020200)  Italy.
   Observer A. Nastasi. 1.00-m f/2.1 reflector + CCD.

Orbital elements:  P12oEGv
   Perihelion 2026 Oct 21.863942 +/- 0.0694 TT = 20:44:04.6 (JD 2461335.363942)
Epoch 2026 Aug  5.0 TT = JDT 2461257.5   Earth MOID: 0.2223   Ma: 0.0067
M 324.514321420 +/- 0.14            (J2000 ecliptic)             AutoNEOCP
n   0.455739557 +/- 0.00148         Peri.   78.225614 +/- 0.08
a   1.672341235 +/- 0.00363         Node   315.074709 +/- 0.016
e   0.37357595 +/- 0.00114          Incl.   18.588636 +/- 0.037
P   2.163/789.910d         H 21.76  G  0.15   U  8.4
q 1.047594768 +/- 0.000439    Q 2.297087703 +/- 0.00688
From 13 observations 2026 July 25-Aug. 5; mean residual 0".23
Residuals in arcseconds: 
260725 F51  .12-  .03+    260726 F52  .13-  .41+    260804 M57  .12-  .00     
260725 F51  .10+  .04-    260726 F52  .04-  .46+    260805 M57  .10-  .20+    
260725 F51  .02+  .01+    260726 F52  .28-  .33-    260805 M57  .21+  .20-    
260726 F52  .53+  .29-    260726 F52  .14+  .23-    
260726 F52  .17-  .25+    260726 F52  .02-  .26-    

Ephemerides (geocentric):
Date (UTC) HH   RA             Dec           delta  r     elong  mag " sig PA
---- --------  ------------   ------------  ------ ------ -----  --- --------
2026 08 06 04  23 04 59.259   +03 37 38.81  .31952 1.2857 143.7 21.1 .347  99
2026 08 06 05  23 04 58.448   +03 40 28.08  .31925 1.2855 143.7 21.1 .358  98
2026 08 06 06  23 04 57.629   +03 43 17.59  .31897 1.2853 143.7 21.1 .370  98
2026 08 06 07  23 04 56.804   +03 46 07.33  .31870 1.2851 143.7 21.1 .381  98
2026 08 06 08  23 04 55.971   +03 48 57.31  .31842 1.2849 143.7 21.1 .392  98
2026 08 06 09  23 04 55.132   +03 51 47.52  .31815 1.2847 143.7 21.1 .404  98
2026 08 06 10  23 04 54.286   +03 54 37.97  .31788 1.2844 143.8 21.1 .415  98
2026 08 06 11  23 04 53.432   +03 57 28.65  .31760 1.2842 143.8 21.1 .427  98
2026 08 06 12  23 04 52.572   +04 00 19.57  .31733 1.2840 143.8 21.0 .439  98
2026 08 06 13  23 04 51.705   +04 03 10.72  .31706 1.2838 143.8 21.0 .451  98
2026 08 06 14  23 04 50.831   +04 06 02.11  .31679 1.2836 143.8 21.0 .463  98
2026 08 06 15  23 04 49.950   +04 08 53.74  .31652 1.2834 143.8 21.0 .475  98
2026 08 06 16  23 04 49.062   +04 11 45.61  .31625 1.2832 143.8 21.0 .487  97
2026 08 06 17  23 04 48.167   +04 14 37.71  .31597 1.2830 143.8 21.0 .499  97
2026 08 06 18  23 04 47.264   +04 17 30.05  .31570 1.2828 143.9 21.0 .511  97
2026 08 06 19  23 04 46.355   +04 20 22.62  .31543 1.2825 143.9 21.0 .524  97
2026 08 06 20  23 04 45.439   +04 23 15.43  .31516 1.2823 143.9 21.0 .536  97
2026 08 06 21  23 04 44.516   +04 26 08.48  .31490 1.2821 143.9 21.0 .549  97
2026 08 06 22  23 04 43.586   +04 29 01.77  .31463 1.2819 143.9 21.0 .561  97
2026 08 06 23  23 04 42.648   +04 31 55.29  .31436 1.2817 143.9 21.0 .574  97
2026 08 07 00  23 04 41.704   +04 34 49.05  .31409 1.2815 143.9 21.0 .587  97
2026 08 07 01  23 04 40.752   +04 37 43.05  .31382 1.2813 143.9 21.0 .600  97
2026 08 07 02  23 04 39.794   +04 40 37.29  .31355 1.2811 144.0 21.0 .613  97
2026 08 07 03  23 04 38.828   +04 43 31.77  .31329 1.2809 144.0 21.0 .626  97
2026 08 07 04  23 04 37.855   +04 46 26.48  .31302 1.2806 144.0 21.0 .639  97
2026 08 07 05  23 04 36.875   +04 49 21.43  .31275 1.2804 144.0 21.0 .652  97
2026 08 07 06  23 04 35.888   +04 52 16.63  .31249 1.2802 144.0 21.0 .666  97
2026 08 07 07  23 04 34.894   +04 55 12.06  .31222 1.2800 144.0 21.0 .679  97
2026 08 07 08  23 04 33.892   +04 58 07.72  .31196 1.2798 144.0 21.0 .692  97
2026 08 07 09  23 04 32.883   +05 01 03.63  .31169 1.2796 144.0 21.0 .706  97
2026 08 07 10  23 04 31.868   +05 03 59.78  .31143 1.2794 144.1 21.0 .720  97
2026 08 07 11  23 04 30.845   +05 06 56.17  .31116 1.2792 144.1 21.0 .733  97
2026 08 07 12  23 04 29.814   +05 09 52.79  .31090 1.2790 144.1 21.0 .747  97
2026 08 07 13  23 04 28.777   +05 12 49.66  .31063 1.2788 144.1 21.0 .761  97
2026 08 07 14  23 04 27.732   +05 15 46.77  .31037 1.2785 144.1 21.0 .775  97
2026 08 07 15  23 04 26.681   +05 18 44.11  .31011 1.2783 144.1 21.0 .789  97
2026 08 07 16  23 04 25.621   +05 21 41.70  .30984 1.2781 144.1 21.0 .804  97
2026 08 07 17  23 04 24.555   +05 24 39.52  .30958 1.2779 144.1 21.0 .818  96
2026 08 07 18  23 04 23.482   +05 27 37.59  .30932 1.2777 144.1 21.0 .832  96
2026 08 07 19  23 04 22.401   +05 30 35.90  .30906 1.2775 144.2 21.0 .847  96
2026 08 07 20  23 04 21.312   +05 33 34.45  .30880 1.2773 144.2 21.0 .861  96
2026 08 07 21  23 04 20.217   +05 36 33.23  .30854 1.2771 144.2 21.0 .876  96
2026 08 07 22  23 04 19.114   +05 39 32.26  .30828 1.2769 144.2 21.0 .891  96
2026 08 07 23  23 04 18.004   +05 42 31.53  .30802 1.2767 144.2 21.0 .906  96
2026 08 08 00  23 04 16.887   +05 45 31.04  .30776 1.2764 144.2 21.0 .921  96
2026 08 08 01  23 04 15.762   +05 48 30.80  .30750 1.2762 144.2 21.0 .936  96
2026 08 08 02  23 04 14.630   +05 51 30.79  .30724 1.2760 144.2 21.0 .951  96
2026 08 08 03  23 04 13.490   +05 54 31.02  .30698 1.2758 144.2 21.0 .966  96